TimeEST,TemperatureF,Dew PointF,Humidity,Sea Level PressureIn,VisibilityMPH,Wind Direction,Wind SpeedMPH,Gust SpeedMPH,PrecipitationIn,Events,Conditions,WindDirDegrees,DateUTC
12:53 AM,68.0,66.0,93,29.97,10.0,South,9.2,-,N/A,,Clear,190,2013-02-13 05:53:00
1:53 AM,68.0,66.0,93,29.97,10.0,SSW,8.1,-,N/A,,Clear,200,2013-02-13 06:53:00
2:53 AM,68.0,66.0,93,29.96,10.0,SSW,6.9,-,N/A,,Mostly Cloudy,200,2013-02-13 07:53:00
3:53 AM,68.0,66.9,96,29.95,10.0,South,9.2,-,N/A,,Partly Cloudy,190,2013-02-13 08:53:00
4:20 AM,68.0,66.2,94,29.94,10.0,SSW,10.4,-,N/A,,Partly Cloudy,200,2013-02-13 09:20:00
4:53 AM,68.0,66.9,96,29.94,10.0,SSW,9.2,-,N/A,,Mostly Cloudy,200,2013-02-13 09:53:00
5:53 AM,69.1,68.0,96,29.95,10.0,SSW,12.7,-,N/A,,Mostly Cloudy,210,2013-02-13 10:53:00
6:53 AM,70.0,69.1,97,29.96,10.0,SSW,11.5,-,N/A,,Overcast,210,2013-02-13 11:53:00
7:53 AM,70.0,68.0,93,29.97,10.0,SSW,12.7,-,N/A,,Overcast,210,2013-02-13 12:53:00
8:53 AM,72.0,69.1,91,29.97,10.0,SSW,18.4,25.3,N/A,,Overcast,200,2013-02-13 13:53:00
9:53 AM,75.9,66.9,74,29.98,10.0,SSW,18.4,26.5,N/A,,Mostly Cloudy,200,2013-02-13 14:53:00
9:58 AM,77.0,68.0,74,29.98,10.0,SSW,17.3,26.5,N/A,,Scattered Clouds,200,2013-02-13 14:58:00
10:05 AM,77.0,68.0,74,29.98,10.0,South,15.0,23.0,N/A,,Mostly Cloudy,190,2013-02-13 15:05:00
10:50 AM,78.8,69.8,74,29.97,10.0,SSW,18.4,-,N/A,,Scattered Clouds,200,2013-02-13 15:50:00
10:53 AM,79.0,69.1,72,29.97,10.0,SSW,17.3,-,N/A,,Partly Cloudy,200,2013-02-13 15:53:00
11:53 AM,81.0,68.0,65,29.94,10.0,SW,16.1,25.3,N/A,,Scattered Clouds,220,2013-02-13 16:53:00
12:53 PM,82.9,66.9,58,29.91,10.0,SW,16.1,21.9,N/A,,Mostly Cloudy,230,2013-02-13 17:53:00
1:53 PM,86.0,66.0,51,29.87,9.0,SW,18.4,27.6,N/A,,Partly Cloudy,230,2013-02-13 18:53:00
2:53 PM,86.0,64.0,48,29.85,10.0,SW,18.4,26.5,N/A,,Mostly Cloudy,220,2013-02-13 19:53:00
3:53 PM,88.0,61.0,40,29.83,10.0,SW,20.7,28.8,N/A,,Partly Cloudy,220,2013-02-13 20:53:00
4:53 PM,86.0,62.1,44,29.84,10.0,WSW,11.5,25.3,N/A,,Partly Cloudy,240,2013-02-13 21:53:00
5:53 PM,82.9,62.1,49,29.85,10.0,SW,13.8,-,N/A,,Clear,230,2013-02-13 22:53:00
6:53 PM,80.1,64.0,58,29.87,10.0,SW,12.7,19.6,N/A,,Clear,230,2013-02-13 23:53:00
7:53 PM,77.0,64.9,66,29.89,10.0,SW,9.2,-,N/A,,Clear,230,2013-02-14 00:53:00
8:53 PM,75.9,66.0,71,29.91,10.0,WSW,10.4,-,N/A,,Clear,240,2013-02-14 01:53:00
9:38 PM,66.2,60.8,83,29.96,10.0,NW,19.6,29.9,0.00,Rain,Light Rain,320,2013-02-14 02:38:00
9:53 PM,64.9,61.0,87,29.97,8.0,NW,12.7,25.3,0.01,Rain,Rain,320,2013-02-14 02:53:00
10:53 PM,64.0,60.1,87,29.98,10.0,NNW,4.6,-,0.00,,Overcast,330,2013-02-14 03:53:00
11:53 PM,64.0,61.0,90,29.98,10.0,Calm,Calm,-,0.01,,Overcast,0,2013-02-14 04:53:00